This demonstration page uses our WeatherBlox Daily Observations layout. Learn more.

Left ArrowRight Arrow

Hourly Observations for February 17, 2019

Temp ( °F °C ) Dew Point ( °F °C ) Humidity (%) Winds ( mph kmh ) Pressure ( in mb ) Visibility ( mi km ) Precip ( " mm )
12:53 am 00:53 Clear 25 -3.9 20 -6.7 81 81 ENE 5 7 30.02 1017 10 16.0934 N/A
1:53 am 01:53 Clear 25 -3.9 20 -6.7 81 81 E 8 13 30.01 1016 10 16.0934 N/A
2:53 am 02:53 Clear 26 -3.3 20 -6.7 78 78 ENE 7 11 29.98 1015 10 16.0934 N/A
3:53 am 03:53 Clear 26 -3.3 21 -6.1 81 81 E 12 19 29.95 1014 10 16.0934 N/A
4:53 am 04:53 Mostly Clear 26 -3.3 20 -6.7 78 78 E 10 17 29.92 1013 10 16.0934 N/A
5:53 am 05:53 Mostly Cloudy 27 -2.8 21 -6.1 78 78 ESE 3 6 29.96 1015 10 16.0934 N/A
6:53 am 06:53 Cloudy with Light Snow 27 -2.8 21 -6.1 78 78 ENE 9 15 29.92 1013 10 16.0934 N/A
7:53 am 07:53 Mostly Cloudy 27 -2.8 21 -6.1 78 78 ENE 9 15 29.91 1013 10 16.0934 N/A
8:53 am 08:53 Cloudy 28 -2.2 22 -5.6 78 78 E 8 13 29.93 1013 10 16.0934 N/A
9:53 am 09:53 Cloudy 29 -1.7 22 -5.6 75 75 ENE 13 20 29.88 1012 10 16.0934 N/A
10:53 am 10:53 Cloudy 30 -1.1 23 -5 75 75 E 9 15 29.87 1012 10 16.0934 N/A
11:53 am 11:53 Cloudy 31 -0.6 23 -5 72 72 ESE 3 6 29.86 1011 10 16.0934 N/A
12:53 pm 12:53 Cloudy with Light Wintry Mix 31 -0.6 25 -3.9 79 79 E 7 11 29.82 1010 8 12.87472 0.01 0.254
1:19 pm 13:19 Cloudy with Light Freezing Rain 31 -0.6 27 -2.8 85 85 E 3 6 29.83 1010 3 4.82802 0.01 0.254
1:35 pm 13:35 Cloudy with Mist and Fog 31 -0.6 27 -2.8 85 85 E 6 9 29.81 1010 3 4.82802 0.01 0.254
1:44 pm 13:44 Cloudy with Mist and Fog 31 -0.6 27 -2.8 85 85 E 3 6 29.82 1010 3 4.82802 0.01 0.254
1:53 pm 13:53 Cloudy with Mist and Fog 30 -1.1 28 -2.2 92 92 E 3 6 29.8 1009 4 6.43736 0.01 0.254
2:21 pm 14:21 Cloudy with Mist and Fog 31 -0.6 27 -2.8 85 85 NE 5 7 29.79 1009 2.5 4.02335 N/A
2:32 pm 14:32 Cloudy with Mist and Fog 30 -1.1 28 -2.2 92 92 ENE 6 9 29.8 1009 2.5 4.02335 N/A
2:40 pm 14:40 Cloudy with Mist and Fog 30 -1.1 27 -2.8 88 88 NE 5 7 29.8 1009 3 4.82802 N/A
2:53 pm 14:53 Cloudy with Light Freezing Rain 30 -1.1 28 -2.2 92 92 NE 5 7 29.78 1008 2 3.21868 N/A
3:00 pm 15:00 Cloudy with Light Freezing Rain 31 -0.6 28 -2.2 89 89 ENE 5 7 29.78 1009 1.75 2.816345 N/A
3:06 pm 15:06 Cloudy with Mist and Fog 30 -1.1 28 -2.2 92 92 ENE 5 7 29.79 1009 1.5 2.41401 N/A
3:24 pm 15:24 Cloudy with Mist and Fog 31 -0.6 28 -2.2 89 89 E 5 7 29.77 1008 1.75 2.816345 N/A
3:33 pm 15:33 Cloudy with Mist and Fog 31 -0.6 28 -2.2 89 89 ESE 3 6 29.78 1009 2 3.21868 N/A
3:53 pm 15:53 Cloudy with Mist and Fog 31 -0.6 28 -2.2 89 89 E 5 7 29.76 1008 1.75 2.816345 N/A
4:01 pm 16:01 Cloudy with Mist and Fog 31 -0.6 29 -1.7 92 92 E 3 6 29.79 1009 1.5 2.41401 N/A
4:16 pm 16:16 Cloudy with Mist and Fog 31 -0.6 29 -1.7 92 92 N N/A 29.8 1009 1.25 2.011675 N/A
4:48 pm 16:48 Cloudy with Mist and Fog 30 -1 28 -2 93 93 N N/A 29.8 1009 1.25 2.011675 N/A
4:53 pm 16:53 Cloudy with Mist and Fog 31 -0.6 29 -1.7 92 92 N N/A 29.78 1008 1.25 2.011675 N/A
5:06 pm 17:06 Cloudy with Mist and Fog 31 -0.6 29 -1.7 92 92 N N/A 29.79 1009 2 3.21868 N/A
5:31 pm 17:31 Cloudy with Mist and Fog 32 undefined 29 -1.7 88 88 N N/A 29.78 1009 3 4.82802 N/A
5:53 pm 17:53 Cloudy with Mist and Fog 31 -0.6 29 -1.7 92 92 N N/A 29.78 1009 2.5 4.02335 N/A
6:09 pm 18:09 Cloudy with Mist and Fog 31 -0.6 29 -1.7 92 92 N N/A 29.79 1009 3 4.82802 N/A
6:53 pm 18:53 Cloudy with Mist and Fog 32 undefined 29 -1.7 88 88 N N/A 29.8 1009 5 8.0467 N/A
7:53 pm 19:53 Cloudy with Mist and Fog 32 undefined 29 -1.7 88 88 W 6 9 29.84 1011 6 9.65604 N/A
8:03 pm 20:03 Cloudy with Mist and Fog 32 undefined 29 -1.7 88 88 W 5 7 29.85 1011 5 8.0467 N/A
8:53 pm 20:53 Cloudy with Mist and Fog 32 undefined 30 -1.1 92 92 W 5 7 29.85 1011 5 8.0467 N/A
9:53 pm 21:53 Cloudy 33 0.6 30 -1.1 89 89 W 7 11 29.88 1012 7 11.26538 N/A
10:38 pm 22:38 Cloudy 33 0.6 29 -1.7 85 85 W 10 17 29.91 1013 9 14.48406 N/A
10:53 pm 22:53 Cloudy 33 0.6 29 -1.7 85 85 W 8 13 29.9 1013 9 14.48406 N/A
11:53 pm 23:53 Cloudy 33 0.6 29 -1.7 85 85 W 9 15 29.92 1013 10 16.0934 N/A

Powered by AerisWeather